Weather History for St. Petersburg Airport, FL

Change the Weather History Date:

Saturday, September 28, 2013

  Actual Average Record
Temperature  
Mean Temperature 80 °F -  
Max Temperature 87 °F 87 °F 94 °F (1976)
Min Temperature 73 °F 74 °F 66 °F (2006)
Cooling Degree Days 15    
Growing Degree Days 30 (Base 50)    
Moisture  
Dew Point 71 °F    
Average Humidity 78    
Maximum Humidity 93    
Minimum Humidity 57    
Precipitation  
Precipitation 0.00 in - - ()
Sea Level Pressure  
Sea Level Pressure 29.97 in    
Wind  
Wind Speed 9 mph (NE)    
Max Wind Speed 16 mph    
Max Gust Speed 23 mph    
Visibility 10 miles    
Events      
Averages and records for this station are not official NWS values.
T = Trace of Precipitation, MM = Missing Value Source: NWS Daily Summary

Daily Weather History Graph

Daily Weather History Graph

Search for Another Location

Airport:

Trip Planner

Search our weather history database for the weather conditions in past years. The results will help you decide how hot, cold, wet, or windy it might be!

Date:

Astronomy

Sep. 28, 2013 Rise Set
Actual Time 7:22 AM EDT 7:19 PM EDT
Civil Twilight 6:58 AM EDT 7:43 PM EDT
Nautical Twilight 6:31 AM EDT 8:10 PM EDT
Astronomical Twilight 6:04 AM EDT 8:37 PM EDT
Moon 1:34 AM EDT (9/28) 3:13 PM EDT (9/28)
Length of Visible Light 12h 44m
Length of Day
11h 57m
Last Quarter, 36% of the Moon is Illuminated
Sep 28
Last Quarter
Oct 4
New
Oct 11
First Quarter
Oct 18
Full
Oct 26
Last Quarter

Hourly Weather History & Observations

Time (EDT) Temp. Heat Index Dew Point Humidity Pressure Visibility Wind Dir Wind Speed Gust Speed Precip Events Conditions
12:53 AM 75.9 °F - 71.1 °F 85% 29.97 in 10.0 mi NE 8.1 mph - N/A   Overcast
1:53 AM 75.9 °F - 71.1 °F 85% 29.96 in 10.0 mi NE 10.4 mph - N/A   Mostly Cloudy
2:53 AM 75.0 °F - 71.1 °F 87% 29.95 in 10.0 mi NE 9.2 mph - N/A   Mostly Cloudy
3:53 AM 75.0 °F - 71.1 °F 87% 29.94 in 10.0 mi NE 10.4 mph - N/A   Clear
4:53 AM 73.0 °F - 71.1 °F 93% 29.94 in 10.0 mi NNE 8.1 mph - N/A   Clear
5:53 AM 73.0 °F - 70.0 °F 90% 29.95 in 10.0 mi NE 6.9 mph - N/A   Clear
6:53 AM 73.0 °F - 70.0 °F 90% 29.96 in 10.0 mi NNE 5.8 mph - N/A   Partly Cloudy
7:53 AM 73.0 °F - 70.0 °F 90% 29.98 in 10.0 mi NE 5.8 mph - N/A   Partly Cloudy
8:53 AM 75.0 °F - 71.1 °F 87% 29.99 in 10.0 mi ENE 5.8 mph - N/A   Partly Cloudy
9:53 AM 78.1 °F - 71.1 °F 79% 30.00 in 10.0 mi NE 8.1 mph - N/A   Clear
10:53 AM 79.0 °F - 72.0 °F 79% 30.01 in 10.0 mi NE 8.1 mph - N/A   Clear
11:53 AM 81.0 °F 85.2 °F 72.0 °F 74% 30.01 in 10.0 mi ENE 6.9 mph - N/A   Partly Cloudy
12:53 PM 82.9 °F 87.5 °F 71.1 °F 67% 30.00 in 10.0 mi NE 8.1 mph - N/A   Clear
1:53 PM 84.9 °F 90.1 °F 71.1 °F 63% 29.98 in 10.0 mi NE 4.6 mph - N/A   Scattered Clouds
2:53 PM 87.1 °F 92.0 °F 70.0 °F 57% 29.95 in 10.0 mi North 3.5 mph - N/A   Scattered Clouds
3:53 PM 87.1 °F 92.0 °F 70.0 °F 57% 29.94 in 10.0 mi NE 4.6 mph - N/A   Mostly Cloudy
4:53 PM 82.9 °F 87.0 °F 70.0 °F 65% 29.94 in 10.0 mi ENE 15.0 mph 18.4 mph N/A   Mostly Cloudy
5:53 PM 81.0 °F 84.4 °F 70.0 °F 69% 29.95 in 10.0 mi ENE 16.1 mph 21.9 mph N/A   Mostly Cloudy
6:53 PM 81.0 °F 84.1 °F 69.1 °F 67% 29.96 in 10.0 mi ENE 10.4 mph 17.3 mph N/A   Overcast
7:53 PM 78.1 °F - 72.0 °F 81% 29.98 in 10.0 mi NE 13.8 mph - N/A   Mostly Cloudy
8:53 PM 77.0 °F - 70.0 °F 79% 30.00 in 10.0 mi NE 10.4 mph 23.0 mph N/A   Overcast
9:53 PM 78.1 °F - 70.0 °F 76% 30.01 in 10.0 mi East 11.5 mph - N/A   Overcast
10:53 PM 77.0 °F - 71.1 °F 82% 30.01 in 10.0 mi East 8.1 mph - N/A   Overcast
11:53 PM 75.9 °F - 71.1 °F 85% 30.01 in 10.0 mi NE 11.5 mph - N/A   Overcast